Other Public Products
Issued by NWS Grand Forks, ND

Home | Current Version | Previous Version | Text Only | Print | Product List | Glossary On
Versions: 1 2 3 4 5 6 7 8 9 10 11 12 13 14 15 16 17 18 19 20 21 22 23 24 25 26 27 28 29 30 31 32 33 34 35 36 37 38 39 40 41 42 43 44 45 46 47 48 49 50
000
FPUS83 KFGF 280131
OPUFGF
PRAIRIE TO PINES WEATHER ROUNDUP
NATIONAL WEATHER SERVICE EASTERN NORTH DAKOTA/GRAND FORKS ND
800 PM CDT SAT AUG 27 2016

 **SATELLITE DATA USED TO AUGMENT SKY COVER AT AUTOMATED STATIONS**
 *****  WEATHER ACROSS EASTERN NORTH DAKOTA  *****

CITY           SKY/WX    TMP DP  RH WIND       PRES   REMARKS
GRAND FORKS    PTCLDY    66  60  81 SE9       29.91R
GRAND FORKS AF CLEAR     64  57  79 SE7       29.92R
GRAND CITY NWS   N/A     63 N/A N/A S5          N/A
BUXTON           N/A     61  61  99 SE10        N/A
DEVILS LAKE    NOT AVBL
FARGO          CLOUDY    70  57  63 SE6       29.95R
WAHPETON ARPT  CLEAR     66  55  68 SE9       29.96R
$$

 *****  WEATHER ACROSS CENTRAL AND WESTERN NORTH DAKOTA  *****

CITY           SKY/WX    TMP DP  RH WIND       PRES   REMARKS
JAMESTOWN      CLEAR     70  64  81 E6        29.90R
BISMARCK       CLEAR     72  56  57 SE7       29.88R
MINOT          CLEAR     75  45  34 SE3       29.85S
MINOT AFB      CLEAR     76  42  29 W3        29.84S
GARRISON         N/A     72  51  47 E6        29.86S
WILLISTON      CLEAR     80  44  27 SE9       29.79S
DICKINSON      CLEAR     74  42  31 SE10      29.85R
HETTINGER      PTCLDY    77  46  33 SE6       29.88S
$$

 *****  OTHER OBSERVATIONS NORTHEAST NORTH DAKOTA  *****

CITY           SKY/WX    TMP DP  RH WIND       PRES   REMARKS
WALHALLA       FAIR      64  64 100 SE6       29.90R
LANGDON        FAIR      63  57  82 SE9       29.92R
CAVALIER       FAIR      63  59  88 S5        29.90S
GRAFTON        FAIR      63  63 100 SE7       29.93R
CANDO          FAIR      64  52  63 SE6       29.92R
FORT TOTTEN      N/A     68  55  62 E2        29.95
ROLLA          FAIR      64  52  63 CALM      29.92R
RUGBY          FAIR      68  54  60 SE3       29.89R
 ***** THE ABOVE OBSERVATIONS ARE NON NWS ARE NOT QUALITY
        CONTROLLED AND MAY MIS-REPORT RAIN FOR SNOW...
$$

 *****  OTHER OBSERVATIONS SOUTHEAST NORTH DAKOTA *****

CITY           SKY/WX    TMP DP  RH WIND       PRES   REMARKS
COOPERSTOWN    NOT AVBL
VALLEY CITY    MOCLDY    70  64  83 S8        29.95R
OAKES            N/A    N/A N/A N/A MISG        N/A
GWINNER        FAIR      66  63  88 SE3       29.93R
BUFFALO          N/A     66  60  81 E12         N/A
WYNDMERE         N/A    N/A N/A N/A SE6         N/A
 ***** THE ABOVE OBSERVATIONS ARE NON NWS ARE NOT QUALITY
       CONTROLLED AND MAY MIS-REPORT RAIN FOR SNOW...
$$

  *****  WEATHER ACROSS NORTHERN MINNESOTA  *****

CITY           SKY/WX    TMP DP  RH WIND       PRES   REMARKS
FLAG ISLAND    PTCLDY    63  55  77 SE3       29.94S HAZE
WARROAD        MOCLDY    61  55  82 S7        29.96R
ROSEAU         PTCLDY    63  55  77 SE7       29.95S
HALLOCK        CLEAR     63  61  94 SE7       29.91R
THF RVR FALLS  PTCLDY    63  59  87 S6        29.96R
HALSTAD          N/A     61  59  93 S9          N/A
FOSSTON        CLOUDY    59  57  94 CALM      29.97R
BAUDETTE       CLOUDY    59  56  89 SE6       29.96S
WASKISH        CLOUDY    57  55  94 CALM      29.98R
CROOKSTON      CLOUDY    63  57  82 S9        29.94S
$$
  *****  WEATHER ACROSS CENTRAL AND WEST MINNESOTA  *****

CITY           SKY/WX    TMP DP  RH WIND       PRES   REMARKS
BEMIDJI        LGT RAIN  58  56  92 SE6       29.98F
PARK RAPIDS    PTCLDY    66  57  72 S7        30.00R
WADENA         CLEAR     63  57  82 CALM      30.00R
DETROIT LAKES  TSTM      61  59  94 SW5G13    30.01R
MOORHEAD       CLOUDY    66  57  72 SE5       29.97R
FERGUS FALLS   CLEAR     64  61  88 S6        29.99R
ELBOW LAKE     FAIR      63  59  88 SE7       29.99R
MORRIS MN      CLEAR     64  61  88 CALM      29.98R
STAPLES        CLEAR     61  55  82 CALM      30.01R
WHEATON        CLEAR     68  63  83 SE9       29.98R
$$
  *****  WEATHER ELSEWHERE ACROSS MINNESOTA  *****

CITY           SKY/WX    TMP DP  RH WIND       PRES   REMARKS
DULUTH         LGT RAIN  61  60  97 CALM      30.04S
INTRNTL FALLS  CLOUDY    55  54  96 CALM      29.98R
ELY            LGT RAIN  61  55  82 CALM      30.05R
CLOQUET        RAIN      61  59  94 CALM      30.04R
BRAINERD       CLEAR     61  58  90 SE3       30.02R
HIBBING        CLOUDY    54  54 100 E5        30.04F
ALEXANDRIA     CLEAR     65  58  78 S8        30.00S
SAINT CLOUD    PTCLDY    62  62 100 SE3       30.01S
MINNEAPOLIS    CLOUDY    69  61  75 CALM      30.02R
$$

  *****  WEATHER ACROSS SOUTH DAKOTA  *****

CITY           SKY/WX    TMP DP  RH WIND       PRES   REMARKS
SIOUX FALLS    PTCLDY    73  65  75 S7        29.99R
BROOKINGS      CLEAR     70  63  78 SE6       29.98S
WATERTOWN      CLEAR     70  62  76 S6        29.97R
HURON          CLEAR     76  61  59 SE7       29.92S
SISSETON         N/A     69  62  78 SE8       29.93S
ABERDEEN       CLEAR     73  62  68 SE7       29.91S
MITCHELL       PTCLDY    76  63  64 SE12      29.94S
PIERRE         CLEAR     75  57  53 E7        29.88R
MOBRIDGE       PTCLDY    75  57  53 SE8       29.88S
RAPID CITY     CLOUDY    76  53  44 S5        29.90R
$$

  *****  SOME WEATHER IN NEARBY STATES *****

CITY           SKY/WX    TMP DP  RH WIND       PRES   REMARKS
GLASGOW MT     CLOUDY    80  42  25 S9        29.72R
GREAT FALLS MT CLOUDY    76  38  25 S3        29.76S
CHEYENNE WY    CLOUDY    74  38  27 S10       30.11R
SCOTTSBLUFF NE CLEAR     78  56  46 E7        29.97S
OMAHA NE       PTCLDY    78  67  68 SE9       29.99R
DES MOINES IA  MOCLDY    78  70  76 S5        30.01R
DAVENPORT IA   MOCLDY    76  71  85 NE3       30.04R
CHICAGO IL     MOCLDY    79  70  74 SW6       30.03R
EAU CLAIRE WI  CLOUDY    66  65  96 S3        30.03R
LA CROSSE WI   CLOUDY    69  67  93 SE3       30.02S
$$

  *****  SOME NATIONAL WEATHER *****

CITY           SKY/WX    TMP DP  RH WIND       PRES   REMARKS
LA GUARDIA NY  MOCLDY    81  58  45 SE7       30.21R
RALEIGH NC     MOCLDY    77  74  90 CALM      30.13R
ATLANTA GA     PTCLDY    86  68  54 E8        30.08R
NEW ORLEANS LA CLOUDY    81  77  88 NW3       29.97R
OKLAHOMA CITY  MOCLDY    82  72  71 SW6       29.99R
ALBUQUERQUE NM MOCLDY    67  51  56 N3        30.17F
SALT LAKE CITY MOSUNNY   86  29  12 N12       29.99S
LOS ANGELES CA MOSUNNY   70  60  70 W16       29.94S
BOISE ID       SUNNY     90  30  11 NW7       29.85S
SEATTLE WA     PTSUNNY   69  52  54 SW12      29.93R
$$

*** WEATHER ACROSS MANITOBA...SASKATCHEWAN AND ONTARIO ***
                ***ONTARIO***

CITY           SKY/WX    TMP DP  RH WIND       PRES   REMARKS
GERALDTON      MOCLDY    63  55  77 S5        30.06S
THUNDER BAY    LGT RAIN  61  59  94 E7        30.05R
SIOUX LOOKOUT  LGT RAIN  59  57  94 S6        29.99S
TORONTO        CLOUDY    75  57  53 SE5       30.13F
BIG TROUT LK   MOCLDY    64  54  68 SE7       29.95S
PICKLE LAKE    CLOUDY    66  54  63 W5        29.99R
DRYDEN         CLOUDY    59  57  94 S9        29.98S
KENORA         MOCLDY    59  57  94 S2        29.97R
$$
                *** MANITOBA***

CITY           SKY/WX    TMP DP  RH WIND       PRES   REMARKS
BRANDON        PTCLDY    66  52  59 SW5       29.88R
DAUPHIN        CLEAR     64  57  77 SE7       29.84R
ISLAND LAKE    LGT RAIN  63  61  94 W2        29.89
PILOT MOUND      N/A     68  48  49 W2          N/A
THE PAS        PTCLDY    64  55  72 SE5       29.81
THOMPSON       MOCLDY    66  54  63 VRB2      29.84R
WINNIPEG       PTCLDY    66  59  77 S10       29.89R
LYNN LAKE      MOCLDY    64  50  59 MISG      29.81R
CHURCHILL      MOCLDY    59  52  77 SE10      29.88S
GILLAM         MOCLDY    66  55  68 E2        29.87S
$$
                ***SASKATCHEWAN***

CITY           SKY/WX    TMP DP  RH WIND       PRES   REMARKS
ESTEVAN        PTCLDY    73  43  33 SE7       29.81S
KINDERSLEY     PTSUNNY   70  61  73 E2        29.58S
LLOYDMINSTER   CLOUDY    64  57  77 N3        29.59S
PRINCE ALBERT  CLOUDY    68  54  60 SE10      29.67F
REGINA         MOCLDY    72  45  37 SE12      29.73F
YORKTON        CLEAR     68  52  56 SE7       29.80F
N. BATTLEFORD  NOT AVBL                                C1F1C2F2C3F3C4F4C5F5C6F6C7F7C8F8C9F9CaFaCbFbCcFcCdFdCe!



USA.gov is the U.S. government's official web portal to all federal, state and local government web resources and services.